Regional Weather Roundup
Issued by NWS Bismarck, ND

Home | Current Version | Previous Version | Text Only | Print | Product List | Glossary On
Versions: 1 2 3 4 5 6 7 8 9 10 11 12 13 14 15 16 17 18 19 20 21 22 23 24 25 26 27 28 29 30 31 32 33 34 35 36 37 38 39 40 41 42 43 44 45 46 47 48 49 50
000
ASUS43 KBIS 230910
RWRBIS

NWR BROADCAST TEXT
NATIONAL WEATHER SERVICE BISMARCK ND
400 AM CDT MON OCT 23 2017

NOTE: "FAIR" INDICATES FEW OR NO CLOUDS BELOW 12,000 FEET WITH NO
SIGNIFICANT WEATHER AND/OR OBSTRUCTIONS TO VISIBILITY.


CITY           SKY/WX    TMP DP  RH WIND       PRES   REMARKS
WILLISTON        N/A    N/A N/A N/A MISG      29.94R
MINOT          MOCLDY    44  35  70 W25G37    29.81R
MINOT AFB      MOCLDY    42  35  76 NW24G30   29.80R
BISMARCK       PTCLDY    50  37  61 W16G23    29.85R
DICKINSON      PTCLDY    44  35  70 W20       29.93R
GARRISON         N/A     45  34  65 NW16      29.83R
HETTINGER ARPT CLOUDY    45  35  68 W22G32    30.00R
JAMESTOWN      CLOUDY    51  38  60 W21G29    29.73R
CARRINGTON     FAIR      48  36  61 W16G29    29.75R
LINTON           N/A     48  34  57 W15       29.86R
TIOGA          CLOUDY    43  34  70 NW17G24   29.89R
$$

CITY           SKY/WX    TMP DP  RH WIND       PRES   REMARKS
GRAND FORKS    CLOUDY    53  42  66 W15       29.61R
GRAND FORKS AF CLEAR     52  37  58 NW18G29   29.62R
DEVILS LAKE    CLOUDY    46  36  68 W24G30    29.69R
FARGO          CLOUDY    53  44  71 W15       29.67R
CANDO          FAIR      43  39  87 W22       29.69R
CAVALIER       FAIR      50  39  66 W15G22    29.58R
GWINNER        MOSUNNY   54  39  58 W15G23    29.74R
ROLLA          CLOUDY    41  39  93 NW29      29.69R
WALHALLA       FAIR     N/A N/A N/A W15G22    29.59R
$$

CITY           SKY/WX    TMP DP  RH WIND       PRES   REMARKS
ABERDEEN       CLEAR     52  41  66 W21G32    29.81R
MOBRIDGE       CLEAR     50  38  63 W23G31    29.87R
BUFFALO          N/A     43  32  65 NW21      29.99R
RAPID CITY     CLEAR     51  21  30 NW31G45   30.11R
GLASGOW        MOCLDY    43  33  68 W12       30.06R
SIDNEY         CLOUDY    47  36  65 W24G31    29.98R
WOLF POINT     PTCLDY    44  36  73 W14       30.03R
GLENDIVE       CLOUDY    45  34  65 W23G29    30.03R
MILES CITY     PTCLDY    47  28  47 W17       30.12R
BAKER          LGT RAIN  44  37  76 NW17G26   30.07R
$$

CITY           SKY/WX    TMP DP  RH WIND       PRES   REMARKS
BILLINGS       CLOUDY    46  24  42 W20       30.25R
GREAT FALLS    CLEAR     45  21  38 W22G32    30.24R
REGINA         CLOUDY    37  36  93 W16       29.91R
ESTEVAN        PTCLDY    39  36  87 NW15      29.88R
$$





USA.gov is the U.S. government's official web portal to all federal, state and local government web resources and services.